Location: Aydie
(43.5695°N, 0.1043°W)
Time: 07:49:21
(UTC+00:00)

Cosmos 2278 Rocket - Pass Details

Date: 17 November 2025
Orbit: 841 x 843 km, 71.0° (Epoch: 13 December)

Event Time Altitude Azimuth Distance (km) Brightness Sun altitude
Rises 17:48:30 0° 205° (SSW) 3,382 5.9 -13.6°
Reaches altitude 10° 17:50:56 10° 206° (SSW) 2,451 5.2 -14.0°
Maximum altitude 17:56:34 84° 295° (WNW) 852 2.2 -15.0°
Drops below altitude 10° 18:02:15 10° 24° (NNE) 2,467 4.3 -16.0°
Enters shadow 18:02:56 - 24° (NNE) 2,726 4.5 -16.2°
